sat.trackr.live / text

‹ back to catalog

STARLINK-32765

NORAD 62747 · 2025-014N

PAYLOAD ACTIVE UNKNOWN

§ Identity

Operator
Country
US
Launch date
2025-01-21
Launch site
AFETR
Launch vehicle
Mass (kg)
RCS (m²)

Purposes: comms

External: N2YO · Heavens-Above · Gunter

§ Orbital elements

Epoch: 2026-09-21T01:05:59.653248Z

Period
94.27 min
Inclination
43.0016°
Eccentricity
0.0001616
Mean motion
15.27593776 rev/d
Perigee alt
481.9 km
Apogee alt
484.1 km
Semi-major
6,861.1 km
B*
4.9401e-4
RAAN
131.1948°
Arg perigee
274.4347°
Mean anomaly
85.6320°
Rev number
9,313

§ Raw data

STARLINK-327651 62747U 25014N   26264.04582932  .00013362  00000+0  49401-3 0  99962 62747  43.0016 131.1948 0001616 274.4347  85.6320 15.27593776 93136

JSON: /api/v1/satellites/62747 · /tle

For live sub-satellite position, see the globe view (requires WebGL).

§ Visibility from observer

Set your observer location to see the next 7 days of passes ≥ 10°. The values pass through the URL so the page stays shareable.

No JS? Fill the form by hand. The geolocation button needs JavaScript.